Regional Weather Roundup
Issued by NWS

Home | Current Version | Previous Version | Graphics & Text | Print | Product List | Glossary On
Versions: 1 2 3 4 5 6 7 8 9 10 11 12 13 14 15 16 17 18 19 20 21 22 23 24 25 26 27 28 29 30 31 32 33 34 35 36 37 38 39 40 41 42 43 44 45 46 47 48 49 50
000
ASUS43 KBIS 271102
RWRND

NORTH DAKOTA REGIONAL WEATHER ROUNDUP
NATIONAL WEATHER SERVICE BISMARCK ND
600 AM CDT THU AUG 27 2015

NOTE: "FAIR" INDICATES FEW OR NO CLOUDS BELOW 12,000 FEET WITH NO
SIGNIFICANT WEATHER AND/OR OBSTRUCTIONS TO VISIBILITY.


NDZ001>003-009>011-017-271200-
NORTHWEST NORTH DAKOTA

CITY           SKY/WX    TMP DP  RH WIND       PRES   REMARKS
WILLISTON      MOCLDY    57  55  93 CALM      30.00S
MINOT          MOCLDY    57  55  93 N6        29.98F
MINOT AFB      MOCLDY    54  54 100 NW6       29.98F
$$

NDZ018>021-031>035-040>046-271200-
SOUTHWEST NORTH DAKOTA

CITY           SKY/WX    TMP DP  RH WIND       PRES   REMARKS
BISMARCK       MOCLDY    61  60  97 NE7       29.98F
DICKINSON      MOCLDY    61  60  97 E6        29.97S
GARRISON         N/A     64  61  90 N5        29.98F
HETTINGER ARPT MOCLDY    58  56  93 CALM      29.99S
$$

NDZ004>008-012>016-024-026-027-054-271200-
NORTHEAST NORTH DAKOTA

CITY           SKY/WX    TMP DP  RH WIND       PRES   REMARKS
GRAND FORKS    PTCLDY    53  50  89 SE3       29.99F
GRND FRKS AFB  CLEAR     53  51  92 E3        30.00F
DEVILS LAKE    PTCLDY    57  50  77 N3        29.99S
$$

NDZ022-023-025-028>030-036>039-047>053-271200-
SOUTHEAST NORTH DAKOTA

CITY           SKY/WX    TMP DP  RH WIND       PRES   REMARKS
FARGO          PTCLDY    60  53  77 SE5       30.01S
JAMESTOWN      CLOUDY    57  55  93 NE5       29.98F
$$



USA.gov is the U.S. government's official web portal to all federal, state and local government web resources and services.